Regional Weather Roundup
Issued by NWS

Home | Current Version | Previous Version | Graphics & Text | Print | Product List | Glossary On
Versions: 1 2 3 4 5 6 7 8 9 10 11 12 13 14 15 16 17 18 19 20 21 22 23 24 25 26 27 28 29 30 31 32 33 34 35 36 37 38 39 40 41 42 43 44 45 46 47 48 49 50
000
ASUS45 KABQ 281410
RWRNM
NEW MEXICO REGIONAL WEATHER ROUNDUP
NATIONAL WEATHER SERVICE ALBUQUERQUE NM
800 AM MDT THU JUL 28 2016

NOTE: "FAIR" MEANS FEW OR NO CLOUDS BELOW 12,000 FEET AGL WITH NO
       SIGNIFICANT WEATHER OR OBSTRUCTIONS TO VISION.

      THIS PRODUCT IS RELEASED AS TWO VERSIONS.  ONE VERSION NEAR
      THE TOP OF THE HOUR CONTAINING PRELIMINARY DATA FROM ALBUQUERQUE
      AND OTHER STATIONS.  A FINAL VERSION WITH ADDITIONAL DATA IS
      ISSUED ABOUT 10 MINUTES AFTER THE HOUR.

NMZ501-503-504-510>518-281500-
NORTHWEST PLATEAU/NORTHCENTRAL MOUNTAINS

CITY           SKY/WX    TMP DP  RH WIND       PRES   REMARKS
FARMINGTON     FAIR      74  43  32 E12       30.22R
LOS ALAMOS     FAIR      67  51  55 CALM      30.40R
SANTA FE       FAIR      67  51  56 N3        30.33R
TAOS           FAIR      64  37  36 NW3       30.41S
ANGEL FIRE     FAIR      56  48  76 CALM      30.50S

$$
NMZ402-403-502-505>509-281500-
WESTCENTRAL MOUNTAINS/SOUTHWEST MOUNTAINS

CITY           SKY/WX    TMP DP  RH WIND       PRES   REMARKS
GALLUP         FAIR      70  49  47 W5        30.31R
GRANTS         FAIR      71  50  47 SE5       30.33S
SILVER CITY    FAIR      69  60  70 NW3       30.23R

$$
NMZ407-409-411-412-281500-
SOUTHERN DESERTS

CITY           SKY/WX    TMP DP  RH WIND       PRES   REMARKS
LORDSBURG      FAIR      72  55  56 W6        30.15R
DEMING         FAIR      77  55  46 E6        30.14R
LAS CRUCES     FAIR      79  53  40 CALM      30.16R
HOLLOMAN AFB   FAIR      77  57  50 N3        30.12R
T OR C         FAIR      72  56  57 NW3       30.19R

$$
NMZ519>523-281500-
CENTRAL VALLEYS/CENTRAL HIGHLANDS

CITY           SKY/WX    TMP DP  RH WIND       PRES   REMARKS
ALBUQUERQUE    FAIR      73  55  53 N6        30.26R
DOUBLE EAGLE   MOSUNNY   70  55  60 VRB5      30.30R
MORIARTY ARPT  FAIR      63  55  75 CALM      30.34S
CLINES CORNERS FAIR      68  54  60 CALM      30.38R
BELEN          FAIR      73  52  47 NW5       30.25S
SOCORRO        FAIR      70  56  61 CALM      30.21S

$$
NMZ524>526-539-540-281500-
SOUTHCENTRAL MOUNTAINS

CITY           SKY/WX    TMP DP  RH WIND       PRES   REMARKS
RUIDOSO        NOT AVBL

$$
NMZ527>531-281500-
NORTHEAST HIGHLANDS/NORTHEAST PLAINS

CITY           SKY/WX    TMP DP  RH WIND       PRES   REMARKS
LAS VEGAS      FAIR      66  53  63 S7        30.35F
RATON          FAIR      63  54  72 E3        30.30S
CLAYTON        FAIR      69  60  73 SW9       30.22F

$$
NMZ532>537-281500-
EASTCENTRAL PLAINS

CITY           SKY/WX    TMP DP  RH WIND       PRES   REMARKS
TUCUMCARI      FAIR      70  58  65 S6        30.19R
CANNON AFB     FAIR      70  59  68 NE10      30.21R
CLOVIS AIRPORT FAIR      70  55  60 NE8       30.21S

$$
NMZ028-029-538-281500-
SOUTHEAST PLAINS

CITY           SKY/WX    TMP DP  RH WIND       PRES   REMARKS
ROSWELL        FAIR      75  59  57 NE7       30.14R
ARTESIA        FAIR      75  61  60 N9        30.14R
CARLSBAD       FAIR      76  61  59 N9        30.10R
HOBBS          SUNNY     73  61  64 N7        30.15R


$$




USA.gov is the U.S. government's official web portal to all federal, state and local government web resources and services.